Location: Duhmang
(23.1000°N, 93.8000°E)
Time: 20:20:42
(UTC+00:00)

Daily predictions for brighter satellites

Satellite Brightness Start Highest point End
(mag) Time Altitude Azimuth Time Altitude Azimuth Time Altitude Azimuth
Cosmos 1937 Rocket 3.9 12:48:40 10° N 12:53:48 48° ENE 12:58:52 10° SSE
EXPRESS MD2 4.3 12:53:44 10° NNW 12:56:46 36° NE 13:02:12 10° ESE
Cosmos 1892 Rocket 3.5 12:57:11 10° S 13:01:30 83° E 13:05:49 10° N
Meteor 2-15 4.5 12:57:45 10° N 13:03:44 63° E 13:09:42 10° SSE
Cosmos 1953 4.2 13:01:33 10° NNW 13:05:10 34° W 13:08:49 10° SSW
Meteor 2-5 Rocket 4.3 13:00:54 10° SSW 13:06:37 68° W 13:12:28 10° N
Cosmos 1726 4.4 13:05:17 10° NNW 13:08:25 27° W 13:11:32 10° SSW
YAOGAN 1 4.2 13:07:28 10° SSW 13:11:24 35° W 13:15:23 10° NNW
HJ-1C 3.9 13:11:53 10° S 13:15:09 60° W 13:18:26 10° NNW
IUS-9 SRM-1 2.7 13:10:16 10° W 13:15:53 48° N 13:17:51 10° ENE
Cosmos 2058 Rocket 3.8 13:13:36 10° NNE 13:17:43 35° E 13:21:41 10° SSE
Okean 1-7 Rocket 3.8 13:15:08 10° S 13:19:41 77° W 13:24:14 10° N
Cosmos 1626 Rocket 4.1 13:16:20 10° SSE 13:20:24 37° E 13:24:30 10° NNE
Cosmos 1300 3.5 13:19:43 10° NNE 13:23:10 32° E 13:25:48 15° SE
USA 215 3.7 13:17:21 10° ENE 13:23:18 37° SE 13:29:12 10° S
DELTA 2 R/B (1) 3.5 13:17:47 10° SW 13:23:20 81° SE 13:28:55 10° ENE
Cosmos 2219 Rocket 3.7 13:26:20 14° ESE 13:26:46 14° E 13:29:28 10° ENE
SL-14 R/B 4.5 13:24:55 10° SSW 13:28:38 44° W 13:32:24 10° N
Cosmos 2360 Rocket 2.2 13:23:20 10° S 13:28:49 57° ESE 13:34:20 10° NNE
Aurora 2 Rocket 4.4 13:22:00 10° W 13:30:02 81° N 13:40:24 11° E
Cosmos 1818 3.6 13:27:00 10° SSW 13:32:24 86° WNW 13:37:50 10° NNE
SJ-6B 3.1 13:30:07 16° SE 13:33:01 46° ENE 13:36:51 10° N
Cosmos 2263 Rocket 2.7 13:28:44 10° N 13:33:57 41° ENE 13:37:33 19° SE
CZ-4 R/B 4.4 13:32:29 10° WSW 13:34:05 12° W 13:35:39 10° WNW
SJ 16-02 3.9 13:32:02 10° NW 13:35:16 20° W 13:38:29 10° SW
Atlas Centaur 2 3.2 13:31:11 10° WNW 13:36:04 43° N 13:42:15 10° ENE
CZ-2C R/B 3.9 13:31:45 10° S 13:37:27 59° W 13:42:59 10° NNW
CZ-3A R/B 4.2 13:20:38 10° SW 13:37:53 26° S 13:42:20 18° SE
Cosmos 2228 4.0 13:34:57 10° NNW 13:39:09 47° W 13:43:21 10° SSW
USA 186 1.9 13:36:13 12° S 13:39:17 79° WSW 13:42:36 10° NNW
Cosmos 2333 Rocket 3.3 13:37:38 19° SE 13:39:18 22° ESE 13:43:31 10° NE
Cosmos 2315 Rocket 4.1 13:33:55 10° N 13:40:17 89° W 13:46:39 10° S
BREEZE M DEB (TANK) 3.0 13:44:19 27° ESE 13:44:19 27° ESE 13:48:25 10° ENE
ARGOS 3.3 13:38:51 10° S 13:44:15 75° WSW 13:49:40 10° NNW
ATLAS CENTAUR R/B 3.2 13:42:31 10° N 13:44:58 23° ENE 13:46:16 21° E
GPS 2-18 Rocket1 3.3 13:42:36 10° WSW 13:46:07 45° S 13:47:14 33° ESE
MetOp-A 4.3 13:43:51 20° SE 13:47:27 52° ENE 13:52:37 10° N
FREGAT/IRIS 2.6 13:46:29 24° S 13:47:50 63° W 13:50:27 10° NNW
SL-16 R/B 4.1 13:43:43 10° SW 13:48:41 32° WNW 13:53:41 10° N
Cosmos 2150 Rocket 4.2 13:47:15 10° N 13:52:20 52° ENE 13:54:56 28° SE
FALCON 9 R/B 2.9 13:54:30 10° NNW 13:55:39 12° N 13:56:32 11° NE
Meteor 2-16 Rocket 4.4 13:50:03 10° S 13:56:08 89° WNW 14:02:13 10° N
CZ-2C R/B 3.2 13:51:25 10° N 13:56:38 58° WNW 14:01:44 10° SSW
Ariane Rocket 3.4 13:51:49 10° S 13:56:50 61° WSW 14:01:52 10° NNW
Cosmos 1461 4.3 13:53:22 10° N 13:57:29 29° ENE 13:58:37 26° E
ATLAS 5 CENTAUR R/B 3.0 13:55:07 10° SW 13:58:48 36° WNW 14:02:38 10° N
Cosmos 2285 Rocket 4.0 13:53:06 10° NNW 13:59:24 81° WSW 14:04:18 17° S
GEOS 3 Rocket 3.6 13:57:21 10° NNE 14:02:46 83° ESE 14:08:05 10° SSW
Cosmos 1386 Rocket 4.5 14:02:33 16° S 14:07:37 66° E 14:13:56 10° NNE
Cosmos 1356 Rocket 4.2 14:05:04 10° NNW 14:09:09 51° W 14:11:48 20° SSW
Cosmos 1602 Rocket 4.0 14:06:56 10° SSW 14:11:15 61° W 14:15:36 10° N
OAO 3 Copernicus 4.2 14:07:23 10° WSW 14:12:27 80° SSE 14:15:35 23° ENE
H-2A ROCKET BODY 3.1 14:09:17 10° WNW 14:13:23 63° NNE 14:27:18 14° E
Hubble Space Telescope 1.1 14:10:01 10° SW 14:13:26 45° S 14:13:26 45° S
Meteor 2-10 Rocket 4.0 14:09:47 10° NNE 14:14:41 40° E 14:15:18 38° E
Cosmos 1844 Rocket 4.4 14:11:26 10° NNE 14:14:46 16° ENE 14:14:57 16° ENE
USA 229 DEB 4.5 14:08:08 10° NW 14:15:28 55° WSW 14:20:56 19° S
USA 229 4.4 14:08:13 10° NW 14:15:33 56° WSW 14:21:01 20° S
H-2A R/B 4.1 14:11:20 10° SSW 14:15:41 25° W 14:20:05 10° NW
Cosmos 1812 Rocket 3.9 14:13:05 10° N 14:17:02 44° ENE 14:17:02 44° ENE
Milstar 3 Cent rocket 3.6 14:16:01 10° WSW 14:20:01 25° SSW 14:21:12 23° S
Cosmos 1125 Rocket 3.6 14:15:09 10° N 14:20:21 60° ENE 14:21:23 50° ESE
NOSS 3-3 (A) 3.6 14:15:33 10° SSW 14:21:06 81° ESE 14:27:04 10° NNE
NOSS 3-3 (C) 3.6 14:15:39 10° SSW 14:21:13 80° ESE 14:27:11 10° NNE
SPOT 3 Rocket 3.5 14:21:39 39° S 14:23:39 86° WSW 14:28:52 10° NNW
BREEZE-M DEB (TANK) 3.3 14:15:37 10° NW 14:23:50 58° NE 14:24:23 52° ENE
NOSS 3-1 (A) 4.5 14:17:44 10° NNW 14:26:01 69° WSW 14:31:23 27° S
GPS 2-15 Rocket1 3.9 14:27:52 10° W 14:32:04 39° SSW 14:32:04 39° SSW
Geosat 3.9 14:36:46 65° E 14:37:05 67° ENE 14:42:03 10° NNW
Palapa B4 Rocket 4.4 14:30:29 10° WSW 14:37:25 41° S 14:37:25 41° S
Resurs 01 Rocket 1.5 14:38:55 85° W 14:38:55 85° W 14:43:18 10° NNW
COSMOS 2428 2.7 14:56:14 57° SW 14:57:22 75° WNW 15:03:02 10° NNE
Cosmos 1538 Rocket 4.0 14:57:50 80° NNW 14:57:50 80° NNW 15:02:58 10° NNE
MetOp-B 4.1 15:02:47 78° NNW 15:02:47 78° NNW 15:07:47 10° NNW
USA 215 4.4 15:00:07 10° NNE 15:06:09 41° NW 15:12:10 10° WSW
Cosmos 2237 Rocket 4.1 15:12:37 19° NE 15:12:37 19° NE 15:14:12 10° NE
BREEZE-M DEB (TANK) 4.5 15:05:31 10° WNW 15:09:09 26° WSW 15:09:09 26° WSW
Cosmos 2219 Rocket 3.0 15:07:53 30° SW 15:10:11 47° WNW 15:15:33 10° N
ERS-1 Rocket 4.4 15:16:49 29° NNE 15:16:49 29° NNE 15:19:30 10° N
Cosmos 2263 Rocket 4.4 15:14:08 10° WNW 15:17:26 16° W 15:19:16 14° WSW
Cosmos 2333 Rocket 3.7 15:19:26 16° WSW 15:23:14 32° WNW 15:28:17 10° N
NOSS 0 Rocket 4.5 15:26:41 49° NNE 15:26:41 49° NNE 15:31:05 10° NNE
Aurora 2 Rocket 4.5 15:15:45 10° W 15:25:18 76° SSW 15:26:50 67° SE
Atlas Centaur 2 3.2 15:20:05 10° WNW 15:26:00 49° N 15:26:58 47° NE
Cosmos 2344 3.9 15:35:20 50° NE 15:35:20 50° NE 15:40:41 10° NNE
Cosmos 2278 Rocket 4.4 15:51:36 10° NNE 15:53:19 17° NNE 15:53:19 17° NNE
Cosmos 1844 Rocket 4.2 15:53:28 10° NNW 15:56:37 31° NW 15:56:37 31° NW
Terra 4.4 16:18:18 17° NNW 16:18:18 17° NNW 16:19:24 10° NNW
VEP-3 3.7 16:13:50 10° W 16:33:40 22° ESE 16:46:19 10° ESE
ATLAS 2AS CENTAUR R/B 4.4 16:36:25 10° N 16:40:26 24° NNE 16:40:26 24° NNE
SL-16 R/B 4.4 18:47:35 23° NE 18:47:35 23° NE 18:51:16 10° NNE
CZ-4C R/B 4.0 18:52:35 10° N 18:59:59 42° ENE 19:00:34 42° ENE
H-2A R/B (2) 4.4 19:48:22 14° E 19:48:22 14° E 19:48:50 10° E
Cosmos 1833 Rocket 4.4 19:51:04 26° E 19:51:04 26° E 19:54:41 10° NE
Cosmos 1802 Rocket 4.4 20:04:30 58° N 20:04:30 58° N 20:09:30 10° N
Resurs 1-4 Rocket 4.2 20:00:03 10° NNW 20:01:39 17° NNW 20:01:39 17° NNW
ADEOS II 3.2 20:09:14 10° N 20:12:27 37° N 20:12:27 37° N
Lacrosse 5 4.4 20:17:59 12° NNW 20:17:59 12° NNW 20:19:05 10° NNW
Meteor 1-5 Rocket 4.5 20:25:58 62° N 20:25:58 62° N 20:30:36 10° N
Cosmos 2061 Rocket 4.2 20:29:45 59° NW 20:29:45 59° NW 20:35:18 10° N
SL-16 R/B 4.0 20:32:41 23° NW 20:32:41 23° NW 20:35:20 10° NW
DELTA 2 R/B (1) 4.3 20:29:34 20° NW 20:33:17 50° NNE 20:38:43 10° ESE
Cosmos 1725 Rocket 4.0 20:36:12 67° WNW 20:36:12 67° WNW 20:41:57 10° N
Meteor 2-4 Rocket 4.0 20:34:24 10° N 20:40:20 71° E 20:41:37 54° SE
ATLAS 2A CENTAUR R/B 3.9 20:40:01 26° W 20:46:59 70° NNW 20:51:00 10° ENE
Tsikada Rocket 4.3 20:41:52 10° N 20:48:14 66° E 20:51:41 28° SSE
CZ-4C R/B 4.1 20:41:20 10° NW 20:45:36 28° WNW 20:45:36 28° WNW
Cosmos 1666 4.2 20:50:25 32° N 20:50:25 32° N 20:52:32 10° N
CZ-2D R/B 4.2 20:46:59 10° N 20:50:15 49° N 20:50:15 49° N
H-2A R/B 3.9 20:50:58 11° SE 20:54:48 31° ENE 20:58:44 10° NNE
Delta 198 3.7 20:56:40 72° SE 20:56:40 72° SE 21:00:48 10° ESE
Cosmos 2346 Rocket 4.3 20:50:41 10° N 20:56:48 71° W 20:57:45 60° SW
CZ-3A R/B 2.1 20:59:13 43° ESE 20:59:13 43° ESE 21:04:13 10° ESE
Hubble Space Telescope 3.2 21:02:46 13° SE 21:02:46 13° SE 21:03:17 10° SE
CZ-3 R/B 4.5 19:53:41 10° WNW 20:59:56 89° SSW 21:13:32 10° ESE
COSMOS 2406 4.1 21:00:45 34° WNW 21:00:45 34° WNW 21:05:45 10° N
Cosmos 1437 Rocket 3.8 20:57:29 10° N 21:00:05 38° NNW 21:00:05 38° NNW
ERS-2 3.8 21:01:00 22° ESE 21:02:35 33° ENE 21:05:53 10° N
GOES 2 Rocket 4.4 20:58:59 25° WNW 21:02:39 51° N 21:07:45 10° ENE
IDEFIX/ARIANE 42P 2.4 20:58:07 10° N 21:03:17 72° WNW 21:03:47 66° WSW
CZ-2C R/B 3.0 21:00:33 10° N 21:04:09 70° N 21:04:09 70° N
Cosmos 676 Rocket 3.9 21:05:34 61° W 21:05:51 62° WNW 21:11:02 10° N
Spot 4 Rocket 4.2 21:00:57 10° N 21:05:55 51° WNW 21:06:00 51° WNW
Cosmos 1900 4.2 21:08:07 64° S 21:08:51 81° ESE 21:13:45 10° NNE
ARIANE 5 R/B 3.5 21:04:48 10° NNW 21:08:44 30° WNW 21:08:44 30° WNW
Cosmos 1140 Rocket 4.4 21:10:23 31° WNW 21:10:23 31° WNW 21:14:37 10° N
OAO 3 Copernicus 4.2 21:10:51 34° WNW 21:13:03 87° NNE 21:18:05 10° ESE
Cosmos 2082 Rocket 2.1 21:12:19 50° SSW 21:13:50 77° WNW 21:19:33 10° NNE
deb Kosmos-1763 4.0 21:15:56 75° NE 21:15:56 75° NE 21:19:16 10° NNE
SWIFT 2.4 21:16:40 61° SSE 21:16:40 61° SSE 21:20:41 10° E
PSLV R/B 4.2 21:12:44 10° NNE 21:16:56 52° E 21:18:50 29° SSE
Landsat 5 4.3 21:14:18 12° SSE 21:17:57 48° ENE 21:21:49 10° N
GPS 2-12 Rocket1 3.3 21:19:55 47° S 21:19:55 47° S 21:23:56 10° ESE
COSMOS 2441 4.2 21:17:22 10° N 21:22:10 82° WNW 21:23:45 43° SSW
Cosmos 1697 Rocket 4.5 21:22:54 10° N 21:27:52 32° ENE 21:32:49 10° SE
Cosmos 1833 Rocket 3.8 21:32:46 24° W 21:33:46 25° WNW 21:38:21 10° NNW
CZ-4B R/B 3.9 21:41:08 10° SE 21:43:55 25° ENE 21:46:46 10° NNE
Cosmos 921 Rocket 4.4 21:39:57 10° N 21:44:05 40° ENE 21:48:07 10° SE
Cosmos 1674 Rocket 3.4 21:40:57 10° N 21:45:18 84° W 21:49:36 10° S
Cosmos 1066 Rocket 4.3 21:40:44 10° N 21:46:37 87° W 21:52:27 10° S
Cosmos 1975 3.2 21:44:41 13° S 21:48:15 65° E 21:52:12 10° NNE
Cosmos 1908 Rocket 3.7 21:47:24 26° SSW 21:49:41 55° W 21:54:04 10° N
NATO 3D Rocket 3.8 21:46:44 18° W 21:52:13 78° S 21:57:32 10° E
CENTAUR R/B 4.2 21:51:45 10° SSE 21:55:59 24° ESE 22:00:37 10° NE
Cosmos 1544 3.1 22:02:36 17° SSW 22:05:10 56° W 22:08:42 10° N
Delta 128 4.3 22:01:19 10° WNW 22:07:06 66° NNE 22:12:00 10° E
GPS 2-14 Rocket1 2.9 22:07:12 19° WSW 22:09:59 58° S 22:14:06 10° E
Cosmos 1378 3.0 22:06:39 10° N 22:10:22 69° W 22:14:05 10° S
CZ-2C R/B 2.8 22:06:43 10° N 22:11:13 42° WNW 22:15:09 12° SW
Okean 2 Rocket 4.4 22:07:56 10° SSE 22:12:04 41° E 22:16:11 10° NNE
CZ-4B R/B 4.3 22:10:44 10° NNE 22:14:35 40° E 22:18:35 10° S
SAR-Lupe-4 3.4 22:12:30 10° S 22:16:02 72° WSW 22:19:36 10° NNW
Meteor 1-31 Rocket 3.0 22:12:59 10° NNE 22:16:55 74° ESE 22:20:49 10° S
Cosmos 1743 4.4 22:16:48 14° WSW 22:18:05 17° W 22:20:34 10° NW
ATLAS 2A CENTAUR R/B 1.4 22:16:07 16° WSW 22:18:12 85° NNW 22:26:04 10° ENE
NOSS 3-2 (C) 4.1 22:13:12 10° S 22:18:22 47° ESE 22:23:52 10° NE
Cosmos 1656 4.2 22:13:32 10° NW 22:18:24 35° WSW 22:23:18 10° SSW
DELTA 2 R/B (1) 4.2 22:14:36 10° WNW 22:19:35 33° SW 22:24:34 10° SSE
Cosmos 2369 3.7 22:15:51 10° NNW 22:21:35 81° WSW 22:27:17 10° SSE
ADEOS Rocket 4.5 22:19:40 10° SE 22:25:05 41° ENE 22:30:59 10° N
H-2A R/B 3.8 22:28:11 10° SW 22:30:40 15° W 22:33:10 10° WNW
SEDSat Delta rocket 3.8 22:24:14 10° WNW 22:30:47 86° SSW 22:36:37 10° ESE
ATLAS 2A CENTAUR R/B 1.9 22:26:51 10° W 22:31:04 46° NNW 22:33:07 10° ENE
Cosmos 1975 Rocket 3.3 22:27:15 10° N 22:31:40 75° E 22:36:06 10° S
Cosmos 1484 Rocket 2.8 22:29:07 10° N 22:32:58 64° WNW 22:36:43 10° SSW
SAR-Lupe-1 4.4 22:29:56 10° S 22:33:18 42° W 22:36:42 10° NNW
Cosmos 2151 Rocket 4.4 22:30:56 10° S 22:35:20 55° E 22:39:46 10° NNE
ALOS 2.3 22:30:56 10° N 22:35:36 81° WNW 22:40:15 10° SSW
NOSS 3-2 (A) 3.3 22:30:16 10° SW 22:35:36 60° WNW 22:41:24 10° NNE
Cosmos 1980 Rocket 2.4 22:34:34 10° NNW 22:40:17 81° ENE 22:45:55 10° SSE
Delta 198 4.4 22:37:43 10° W 22:41:52 30° SSW 22:45:30 10° SE
CZ-3B R/B 1.6 22:37:26 10° W 22:44:09 81° NNW 22:46:38 10° ENE
